Massena, NY

10:58 PM EST on February 12, 2016 (GMT -0500)
Massena International-Richards

Weather History for KMSS - November, 2011

Change the Weather History Date:

Wednesday, November 9, 2011

  Actual Average Record
Temperature  
Mean Temperature 51 °F 38 °F  
Max Temperature 65 °F 47 °F 70 °F (2009)
Min Temperature 37 °F 30 °F 9 °F (1971)
Degree Days  
Heating Degree Days 14 27  
Month to date heating degree days 193 231  
Since 1 July heating degree days 798 1112  
Cooling Degree Days 0 0  
Month to date cooling degree days 0  
Year to date cooling degree days 363  
Moisture  
Dew Point 40 °F    
Average Humidity 69    
Maximum Humidity 89    
Minimum Humidity 48    
Precipitation  
Precipitation 0.00 in 0.10 in 0.94 in (1966)
Month to date precipitation 0.04 0.97  
Year to date precipitation 27.41 30.47  
Sea Level Pressure  
Sea Level Pressure 29.99 in    
Wind  
Wind Speed 3 mph (NE)    
Max Wind Speed 13 mph    
Max Gust Speed 16 mph    
Visibility 9 miles    
Events      
T = Trace of Precipitation, MM = Missing Value Source: NWS Daily Summary

Daily Weather History Graph

Daily Weather History Graph

Search for Another Location

Airport or City:

Trip Planner

Search our weather history database for the weather conditions in past years. The results will help you decide how hot, cold, wet, or windy it might be!

Date:

Astronomy

Nov. 09, 2011 Rise Set
Actual Time 6:48 AM EST 4:37 PM EST
Civil Twilight 6:17 AM EST 5:08 PM EST
Nautical Twilight 5:41 AM EST 5:43 PM EST
Astronomical Twilight 5:07 AM EST 6:18 PM EST
Moon 3:47 PM EST (11/9) 5:41 AM EST (11/9)
Length of Visible Light 10h 51m
Length of Day
9h 49m
Waxing Gibbous, 99% of the Moon is Illuminated
Nov 9
Waxing Gibbous
Nov 10
Full
Nov 18
Last Quarter
Nov 25
New
Dec 2
First Quarter

Hourly Weather History & Observations

Time (EST) Temp. Windchill Dew Point Humidity Pressure Visibility Wind Dir Wind Speed Gust Speed Precip Events Conditions
12:53 AM 48.0 °F - 36.0 °F 63% 30.15 in 10.0 mi NNE 3.5 mph - N/A   Clear
1:53 AM 43.0 °F 41.3 °F 35.1 °F 74% 30.14 in 10.0 mi NE 3.5 mph - N/A   Clear
2:53 AM 41.0 °F - 35.1 °F 79% 30.14 in 10.0 mi Calm Calm - N/A   Clear
3:53 AM 41.0 °F - 35.1 °F 79% 30.12 in 10.0 mi Calm Calm - N/A   Clear
4:53 AM 39.9 °F - 34.0 °F 79% 30.12 in 10.0 mi Calm Calm - N/A   Clear
5:53 AM 39.0 °F - 34.0 °F 82% 30.12 in 10.0 mi Calm Calm - N/A   Clear
6:53 AM 37.0 °F - 34.0 °F 89% 30.12 in 10.0 mi Calm Calm - N/A   Clear
7:53 AM 44.1 °F 42.5 °F 37.9 °F 79% 30.12 in 10.0 mi ENE 3.5 mph - N/A   Clear
8:53 AM 51.8 °F - 39.2 °F 62% 30.10 in 10.0 mi ENE 4.6 mph - N/A   Clear
9:53 AM 55.9 °F - 42.1 °F 60% 30.09 in 10.0 mi ENE 4.6 mph - N/A   Clear
10:53 AM 57.9 °F - - N/A% 30.07 in - North - - N/A   Unknown
11:53 AM 63.0 °F - 44.1 °F 50% 30.02 in 10.0 mi NE 6.9 mph - N/A   Clear
12:53 PM 62.6 °F - 44.6 °F 52% 29.98 in 10.0 mi NNE 6.9 mph - N/A   Clear
1:53 PM 64.9 °F - 45.0 °F 48% 29.95 in 10.0 mi NE 11.5 mph - N/A   Unknown
2:53 PM - - - N/A% 29.92 in - North - - N/A   Unknown
3:53 PM 57.0 °F - 45.0 °F 64% 29.92 in 9.0 mi ENE 6.9 mph - N/A   Unknown
4:53 PM 53.1 °F - 44.1 °F 71% 29.91 in 9.0 mi NE 4.6 mph - N/A   Clear
5:53 PM 51.1 °F - 43.0 °F 74% 29.89 in 8.0 mi ENE 3.5 mph - N/A   Clear
6:53 PM 48.9 °F - 43.0 °F 80% 29.88 in 8.0 mi Calm Calm - N/A   Clear
7:53 PM 48.0 °F - 43.0 °F 83% 29.85 in 7.0 mi Calm Calm - N/A   Clear
8:53 PM 46.0 °F 44.8 °F 42.1 °F 86% 29.83 in 8.0 mi ENE 3.5 mph - N/A   Clear
9:53 PM 42.1 °F - 39.0 °F 89% 29.81 in 6.0 mi Calm Calm - N/A   Clear
10:53 PM 41.0 °F - 37.9 °F 89% 29.80 in 6.0 mi Calm Calm - N/A   Clear
11:53 PM 42.1 °F - 39.0 °F 89% 29.81 in 6.0 mi Calm Calm - N/A   Clear